Погода в Самарканде

Узбекистан     39°39′16″N   66°58′07″E
темп.,
°C
ветер,
м/с
пор.,
м/с
влажн.,
%
обл.,
%
осадки,
мм/ч
давл.,
гПа
погр.,
м
8 августа, пн
пн823:00+28зюз23193 0.0 1005103
02:00+26юз12200 0.0 100487
05:00+24юз11230 0.0 100548
08:00+28юв01190 0.0 1007367
11:00+34зюз67160 0.0 10052796
14:00+35з89140 0.0 10043150
17:00+34з66140 0.0 10042851
20:00+30зсз582185 0.0 1005438
9 августа, вт
вт923:00+27сз11240 0.0 1006127
02:00+25в22260 0.0 1006126
05:00+24в22250 0.0 100687
08:00+27всв12200 0.0 1007378
11:00+32ссз11150 0.0 10061911
14:00+35сз341310 0.0 10042584
17:00+35сз651088 0.0 10043135
20:00+31ссз581459 0.0 1005614
10 августа, ср
ср1023:00+27ссв14185 0.0 1007223
02:00+25вюв12190 0.0 100675
05:00+24вюв22214 0.0 100751
08:00+27в34175 0.0 1008418
11:00+32св21134 0.0 10072136
14:00+34всв45130 0.0 10053305
17:00+34всв65142 0.0 10033345
20:00+29св811200 0.0 1005844
11 августа, чт
чт1123:00+26св611190 0.0 1007716
02:00+23св410264 0.0 1007484
05:00+21всв343267 0.0 1007200
08:00+24всв232857 0.0 1008566
11:00+30всв451957 0.0 10071763
14:00+32всв651724 0.0 10062405
17:00+32св77188 0.0 10062612
20:00+28св610223 0.0 1007722
12 августа, пт
пт1223:00+25всв38260 0.0 1008371
02:00+23св411280 0.0 1008481
05:00+22всв35330 0.0 1009159
08:00+25всв36290 0.0 1009528
11:00+30всв55200 0.0 10081308
14:00+33св54160 0.0 10061846
17:00+33св66150 0.0 10062055
20:00+28св48190 0.0 1006550